Location: Guayaquil
(2.1667°S, 79.9000°W)
Time: 13:47:50
(UTC-05:00)

DNEPR OBJECT AB - Visible Passes

Search period start: 25 July 2017 00:00
Search period end: 04 August 2017 00:00
Orbit: 588 x 704 km, 97.6° (Epoch: 25 July)

Date Brightness Start Highest point End Pass type
(mag) Time Alt. Az. Time Alt. Az. Time Alt. Az.
25 Jul ? 18:53:06 10° SE 18:56:38 21° E 19:00:09 10° NNE visible
25 Jul ? 20:29:29 10° SSW 20:33:01 21° WSW 20:36:32 10° NW visible
26 Jul ? 19:17:25 10° SSE 19:21:59 44° E 19:26:30 10° N visible
27 Jul ? 19:42:51 12° S 19:47:19 83° WSW 19:52:04 10° NNW visible
28 Jul ? 20:08:28 11° SSW 20:12:37 37° WSW 20:16:59 10° NW visible
29 Jul ? 18:57:43 10° SE 19:01:34 24° E 19:05:22 10° NNE visible
29 Jul ? 20:34:48 10° SW 20:37:55 17° WSW 20:41:02 10° WNW visible
30 Jul ? 19:22:15 10° SSE 19:26:55 53° E 19:31:30 10° N visible
31 Jul ? 19:47:34 11° S 19:52:14 69° WSW 19:56:56 10° NNW visible
01 Aug ? 20:13:21 10° SSW 20:17:33 31° WSW 20:21:42 10° NW visible
02 Aug ? 19:02:24 10° SE 19:06:29 28° E 19:10:30 10° NNE visible
02 Aug ? 20:40:15 10° SW 20:42:50 15° WSW 20:45:24 10° WNW visible
03 Aug ? 19:27:06 10° SSE 19:31:50 63° ENE 19:36:27 10° N visible
